QPF
0.00 0.01 0.07 0.06 0.06 0.04 0.01 0.00 0.00 0.00 0.00 0.00 0.00 0.00 0.00 0.00 0.04 0.02 0.00 0.00 0.00 0.01 0.00 0.00 0.00 0.00 0.00 0.00 0.00 0.00 0.00 0.00 0.00 0.00 0.00 0.00 0.00 0.00 0.00 0.00 0.00 0.00 0.00
0.00 0.03 0.15 0.13 0.15 0.11 0.07 0.03 0.02 0.00 0.00 0.00 0.00 0.00 0.00 0.00 0.04 0.06 0.00 0.00 0.00 0.00 0.01 0.00 0.00 0.00 0.00 0.00 0.00 0.00 0.00 0.00 0.00 0.00 0.00 0.00 0.00 0.00 0.00 0.00 0.00 0.00 0.00
0.02 0.06 0.10 0.07 0.08 0.06 0.06 0.05 0.07 0.05 0.05 0.02 0.00 0.00 0.00 0.00 0.03 0.08 0.05 0.02 0.00 0.00 0.00 0.00 0.00 0.00 0.00 0.00 0.00 0.00 0.00 0.00 0.00 0.00 0.00 0.00 0.00 0.00 0.00 0.00 0.00 0.00 0.00
0.01 0.01 0.01 0.02 0.03 0.01 0.01 0.01 0.03 0.05 0.06 0.07 0.04 0.01 0.00 0.00 0.00 0.03 0.05 0.08 0.07 0.02 0.00 0.00 0.00 0.00 0.00 0.00 0.00 0.00 0.00 0.00 0.00 0.00 0.00 0.00 0.00 0.00 0.00 0.00 0.00 0.00 0.00
0.08 0.13 0.07 0.02 0.01 0.01 0.01 0.01 0.03 0.05 0.05 0.05 0.05 0.03 0.03 0.01 0.00 0.00 0.00 0.01 0.05 0.08 0.03 0.00 0.00 0.00 0.00 0.00 0.00 0.00 0.00 0.00 0.00 0.00 0.00 0.00 0.00 0.00 0.00 0.00 0.00 0.00 0.00
0.13 0.20 0.16 0.09 0.02 0.01 0.01 0.03 0.02 0.05 0.07 0.06 0.04 0.05 0.04 0.05 0.04 0.03 0.02 0.01 0.01 0.05 0.10 0.07 0.02 0.00 0.00 0.00 0.00 0.00 0.00 0.00 0.00 0.00 0.00 0.00 0.00 0.00 0.00 0.00 0.00 0.00 0.00
0.08 0.09 0.09 0.06 0.04 0.02 0.01 0.01 0.03 0.02 0.04 0.07 0.08 0.03 0.02 0.03 0.05 0.08 0.12 0.07 0.05 0.04 0.04 0.09 0.12 0.07 0.02 0.00 0.00 0.00 0.00 0.00 0.00 0.00 0.00 0.00 0.00 0.00 0.00 0.00 0.00 0.00 0.00
0.04 0.04 0.03 0.02 0.03 0.02 0.02 0.02 0.01 0.01 0.00 0.01 0.01 0.04 0.02 0.01 0.01 0.03 0.09 0.11 0.11 0.09 0.11 0.08 0.08 0.12 0.11 0.05 0.01 0.00 0.00 0.00 0.00 0.00 0.00 0.00 0.00 0.00 0.00 0.00 0.00 0.00 0.00
0.01 0.01 0.01 0.01 0.01 0.00 0.00 0.00 0.00 0.00 0.00 0.00 0.00 0.00 0.00 0.00 0.00 0.00 0.00 0.01 0.05 0.03 0.03 0.07 0.09 0.10 0.11 0.10 0.08 0.04 0.02 0.00 0.00 0.00 0.00 0.00 0.00 0.00 0.00 0.00 0.00 0.00 0.00
0.00 0.00 0.00 0.00 0.00 0.00 0.00 0.00 0.00 0.00 0.00 0.00 0.00 0.00 0.00 0.00 0.00 0.00 0.00 0.00 0.01 0.03 0.03 0.04 0.04 0.05 0.09 0.17 0.23 0.19 0.14 0.10 0.01 0.00 0.00 0.00 0.00 0.00 0.00 0.01 0.00 0.00 0.00
0.00 0.00 0.00 0.00 0.00 0.00 0.00 0.00 0.00 0.00 0.00 0.00 0.00 0.00 0.00 0.00 0.00 0.00 0.00 0.00 0.00 0.00 0.00 0.01 0.02 0.03 0.05 0.10 0.20 0.27 0.29 0.16 0.06 0.00 0.00 0.00 0.00 0.00 0.01 0.02 0.02 0.00 0.00
0.00 0.00 0.00 0.00 0.00 0.00 0.00 0.00 0.00 0.00 0.00 0.00 0.00 0.00 0.00 0.00 0.00 0.00 0.00 0.00 0.00 0.00 0.00 0.00 0.00 0.00 0.01 0.03 0.03 0.05 0.13 0.17 0.17 0.01 0.00 0.00 0.00 0.00 0.01 0.02 0.03 0.00 0.00
0.00 0.00 0.00 0.00 0.00 0.00 0.00 0.00 0.00 0.00 0.00 0.00 0.00 0.00 0.00 0.00 0.00 0.00 0.00 0.00 0.00 0.00 0.00 0.00 0.00 0.00 0.00 0.00 0.00 0.00 0.05 0.13 0.11 0.02 0.00 0.00 0.00 0.00 0.01 0.02 0.03 0.01 0.00
0.00 0.00 0.00 0.00 0.00 0.00 0.00 0.00 0.00 0.00 0.00 0.00 0.00 0.00 0.00 0.00 0.00 0.00 0.00 0.00 0.00 0.00 0.00 0.00 0.00 0.00 0.00 0.00 0.00 0.00 0.01 0.06 0.12 0.09 0.03 0.02 0.02 0.00 0.01 0.03 0.06 0.03 0.00
0.00 0.00 0.00 0.00 0.00 0.00 0.00 0.00 0.00 0.00 0.00 0.00 0.00 0.00 0.00 0.00 0.00 0.00 0.00 0.00 0.00 0.00 0.00 0.00 0.00 0.00 0.00 0.00 0.00 0.00 0.00 0.00 0.03 0.08 0.07 0.06 0.06 0.03 0.01 0.02 0.05 0.05 0.02
0.00 0.00 0.00 0.00 0.00 0.00 0.00 0.00 0.00 0.00 0.00 0.00 0.00 0.00 0.00 0.00 0.00 0.00 0.00 0.00 0.00 0.00 0.00 0.00 0.00 0.00 0.00 0.00 0.00 0.00 0.00 0.00 0.00 0.02 0.05 0.06 0.07 0.06 0.04 0.02 0.03 0.07 0.07
0.00 0.00 0.00 0.00 0.00 0.00 0.00 0.00 0.00 0.00 0.00 0.00 0.00 0.00 0.00 0.00 0.00 0.00 0.00 0.00 0.00 0.00 0.00 0.00 0.00 0.00 0.00 0.00 0.00 0.00 0.00 0.00 0.00 0.00 0.01 0.02 0.01 0.04 0.06 0.05 0.04 0.06 0.10
0.00 0.00 0.00 0.00 0.00 0.00 0.00 0.00 0.00 0.00 0.00 0.00 0.00 0.00 0.00 0.00 0.00 0.00 0.00 0.00 0.00 0.00 0.00 0.00 0.00 0.00 0.00 0.00 0.00 0.00 0.00 0.00 0.00 0.00 0.00 0.01 0.01 0.00 0.02 0.06 0.04 0.04 0.10
0.00 0.00 0.00 0.00 0.00 0.00 0.00 0.00 0.00 0.00 0.00 0.00 0.00 0.00 0.00 0.00 0.00 0.00 0.00 0.00 0.00 0.00 0.00 0.00 0.00 0.00 0.00 0.00 0.00 0.00 0.00 0.00 0.00 0.00 0.00 0.00 0.00 0.00 0.01 0.01 0.06 0.07 0.07
0.00 0.00 0.00 0.00 0.00 0.00 0.00 0.00 0.00 0.00 0.00 0.00 0.00 0.00 0.00 0.00 0.00 0.00 0.00 0.00 0.00 0.00 0.00 0.00 0.00 0.00 0.00 0.00 0.00 0.00 0.00 0.00 0.00 0.00 0.00 0.00 0.00 0.00 0.01 0.02 0.04 0.08 0.07
0.00 0.00 0.00 0.00 0.00 0.00 0.00 0.00 0.00 0.00 0.00 0.00 0.00 0.00 0.00 0.00 0.00 0.00 0.00 0.00 0.00 0.00 0.00 0.00 0.00 0.00 0.00 0.00 0.00 0.00 0.00 0.00 0.00 0.00 0.00 0.00 0.00 0.00 0.00 0.01 0.01 0.02 0.03
0.00 0.00 0.00 0.00 0.00 0.00 0.00 0.00 0.00 0.00 0.00 0.00 0.00 0.00 0.00 0.00 0.00 0.00 0.00 0.00 0.00 0.00 0.00 0.00 0.00 0.00 0.00 0.00 0.00 0.00 0.00 0.00 0.00 0.00 0.00 0.00 0.00 0.00 0.00 0.01 0.01 0.00 0.01
0.00 0.00 0.00 0.00 0.00 0.00 0.00 0.00 0.00 0.00 0.00 0.00 0.00 0.00 0.00 0.00 0.00 0.00 0.00 0.00 0.00 0.00 0.00 0.00 0.00 0.00 0.00 0.00 0.00 0.00 0.00 0.00 0.00 0.01 0.02 0.02 0.01 0.01 0.01 0.01 0.02 0.01 0.00
0.00 0.00 0.00 0.00 0.00 0.00 0.00 0.00 0.00 0.00 0.00 0.00 0.00 0.00 0.00 0.00 0.00 0.00 0.00 0.00 0.00 0.00 0.00 0.00 0.00 0.00 0.00 0.00 0.00 0.00 0.00 0.00 0.00 0.00 0.01 0.01 0.02 0.02 0.03 0.03 0.02 0.02 0.01
0.00 0.00 0.00 0.00 0.00 0.00 0.00 0.00 0.00 0.00 0.00 0.00 0.00 0.00 0.00 0.00 0.00 0.00 0.00 0.00 0.00 0.00 0.00 0.00 0.00 0.00 0.00 0.00 0.00 0.00 0.00 0.00 0.00 0.00 0.00 0.00 0.01 0.01 0.01 0.03 0.04 0.02 0.01
0.00 0.00 0.00 0.00 0.00 0.00 0.00 0.00 0.00 0.00 0.00 0.00 0.00 0.00 0.00 0.00 0.00 0.00 0.00 0.00 0.00 0.00 0.00 0.00 0.00 0.00 0.00 0.00 0.00 0.00 0.00 0.00 0.00 0.00 0.01 0.01 0.02 0.03 0.04 0.04 0.05 0.02 0.01
MSLP
1015.43 1015.34 1015.49 1015.49 1015.77 1015.69 1015.84 1015.80 1015.78 1015.81 1015.80 1015.77 1015.81 1015.82 1015.70 1015.65 1015.63 1015.62 1015.68 1015.64 1015.67 1015.58 1015.48 1015.53 1015.49 1015.53 1015.58 1015.61 1015.62 1015.61 1015.64 1015.63 1015.64 1015.70 1015.70 1015.70 1015.68 1015.60 1015.59 1015.55 1015.49 1015.19 1015.37
1015.59 1015.65 1015.92 1015.91 1015.91 1015.90 1016.05 1016.04 1015.90 1016.00 1015.95 1015.96 1015.91 1015.90 1015.81 1015.75 1015.80 1015.79 1015.66 1015.74 1015.74 1015.69 1015.60 1015.55 1015.59 1015.59 1015.61 1015.64 1015.70 1015.66 1015.67 1015.74 1015.81 1015.83 1015.89 1015.88 1015.82 1015.72 1015.72 1015.63 1015.53 1015.39 1015.56
1016.00 1015.95 1016.03 1016.07 1016.08 1015.95 1016.04 1016.04 1016.00 1016.15 1016.04 1016.08 1016.10 1015.96 1015.87 1015.80 1015.79 1015.80 1015.79 1015.77 1015.80 1015.72 1015.66 1015.60 1015.63 1015.73 1015.77 1015.76 1015.72 1015.70 1015.72 1015.75 1015.90 1015.95 1016.00 1015.74 1015.73 1015.86 1015.68 1015.65 1015.64 1015.59 1015.60
1016.78 1016.61 1016.41 1016.36 1016.30 1016.25 1016.17 1016.15 1016.13 1016.12 1016.09 1016.08 1015.99 1015.98 1015.80 1015.73 1015.68 1015.54 1015.65 1015.74 1015.69 1015.62 1015.62 1015.52 1015.61 1015.59 1015.72 1015.76 1015.70 1015.67 1015.73 1015.81 1015.87 1015.94 1015.80 1015.82 1015.81 1015.80 1015.69 1015.74 1015.69 1015.77 1015.80
1018.08 1017.62 1017.28 1017.00 1016.97 1016.90 1016.67 1016.50 1016.43 1016.32 1016.26 1016.18 1016.06 1015.90 1015.89 1015.79 1015.61 1015.49 1015.51 1015.50 1015.44 1015.52 1015.44 1015.34 1015.43 1015.43 1015.49 1015.61 1015.65 1015.64 1015.63 1015.72 1015.78 1015.77 1015.66 1015.83 1015.81 1015.70 1015.75 1015.73 1015.84 1015.90 1015.99
1019.37 1018.90 1018.42 1017.91 1017.72 1017.58 1017.41 1017.25 1017.06 1016.97 1016.88 1016.84 1016.39 1016.18 1015.95 1015.71 1015.57 1015.53 1015.35 1015.36 1015.36 1015.32 1015.38 1015.34 1015.21 1015.20 1015.27 1015.34 1015.47 1015.50 1015.50 1015.59 1015.64 1015.47 1015.73 1015.85 1015.77 1015.74 1015.81 1015.84 1015.95 1015.94 1015.94
1020.25 1019.97 1019.41 1018.97 1018.73 1018.42 1018.24 1017.92 1017.94 1017.60 1017.30 1017.10 1016.90 1016.55 1016.21 1015.90 1015.69 1015.37 1015.28 1015.25 1015.19 1015.26 1015.10 1015.16 1015.08 1015.12 1015.09 1015.12 1015.13 1015.16 1015.31 1015.37 1015.29 1015.44 1015.57 1015.56 1015.65 1015.82 1015.64 1015.61 1015.90 1015.86 1015.91
1020.85 1020.56 1020.22 1019.78 1019.63 1019.26 1018.96 1018.54 1018.55 1018.39 1017.84 1017.48 1017.29 1016.93 1016.63 1016.20 1015.96 1015.85 1015.70 1015.38 1015.26 1015.12 1015.00 1015.00 1014.94 1014.96 1014.77 1014.83 1014.71 1014.76 1014.96 1015.06 1015.09 1015.12 1015.25 1015.38 1015.55 1015.62 1015.45 1015.58 1015.83 1015.69 1015.92
1021.12 1020.79 1020.41 1020.29 1020.37 1020.28 1019.33 1019.43 1018.99 1019.07 1018.63 1018.26 1017.93 1017.65 1017.45 1016.97 1016.60 1016.45 1016.25 1015.89 1015.59 1015.42 1015.21 1015.01 1014.86 1014.71 1014.58 1014.51 1014.44 1014.45 1014.52 1014.60 1014.61 1014.70 1014.82 1015.02 1015.29 1015.32 1015.17 1015.22 1015.49 1015.56 1015.75
1021.67 1021.56 1021.17 1020.91 1020.96 1020.36 1020.10 1020.18 1019.85 1019.22 1019.24 1018.94 1018.52 1018.17 1017.94 1017.51 1017.11 1017.07 1016.73 1016.40 1016.06 1015.70 1015.53 1015.34 1015.04 1014.74 1014.50 1014.25 1014.08 1014.04 1014.20 1014.41 1014.29 1014.46 1014.43 1014.42 1014.81 1014.87 1014.78 1014.95 1015.15 1015.36 1015.51
1022.27 1022.21 1021.85 1021.64 1021.39 1021.06 1020.67 1020.68 1020.24 1019.79 1019.50 1019.24 1018.82 1018.64 1018.33 1018.06 1017.67 1017.44 1017.15 1016.80 1016.51 1016.16 1015.97 1015.64 1015.35 1014.98 1014.62 1014.28 1013.96 1013.58 1013.71 1013.80 1014.08 1014.00 1014.08 1014.23 1014.41 1014.38 1014.42 1014.59 1014.84 1015.00 1015.14
1023.07 1022.80 1022.62 1022.28 1021.94 1021.55 1021.04 1021.00 1020.65 1020.32 1019.96 1019.61 1019.26 1018.94 1018.68 1018.46 1018.15 1017.87 1017.54 1017.13 1016.84 1016.54 1016.40 1016.05 1015.66 1015.26 1014.88 1014.47 1013.99 1013.59 1013.24 1013.19 1013.32 1013.54 1013.51 1013.71 1013.85 1013.79 1013.90 1014.03 1014.27 1014.59 1014.71
1023.72 1023.25 1022.88 1022.63 1022.38 1022.09 1021.66 1021.14 1020.77 1020.37 1019.99 1019.72 1019.53 1019.30 1019.04 1018.63 1018.25 1017.87 1017.57 1017.36 1017.13 1016.82 1016.50 1016.23 1015.91 1015.59 1015.30 1014.78 1014.25 1013.83 1013.40 1013.20 1012.88 1012.78 1012.49 1012.64 1012.88 1013.17 1013.23 1013.29 1013.63 1013.99 1014.18
1023.63 1023.48 1023.10 1022.76 1022.23 1021.86 1021.59 1021.25 1020.91 1020.39 1019.94 1019.51 1019.40 1019.10 1018.85 1018.70 1018.42 1018.08 1017.62 1017.43 1017.21 1017.06 1016.82 1016.64 1016.22 1015.76 1015.41 1015.04 1014.42 1013.88 1013.62 1013.21 1012.69 1012.49 1011.71 1012.27 1012.80 1012.61 1012.68 1012.90 1013.04 1013.31 1013.48
1024.37 1024.00 1023.38 1022.85 1022.27 1021.85 1021.46 1021.02 1020.54 1020.36 1019.96 1019.61 1019.26 1018.98 1018.65 1018.57 1018.45 1018.14 1017.78 1017.48 1017.19 1016.93 1016.68 1016.45 1016.19 1015.80 1015.38 1014.91 1014.53 1014.11 1013.47 1012.91 1012.42 1011.84 1011.87 1011.83 1011.87 1012.10 1011.74 1011.89 1012.35 1012.70 1012.90
1024.95 1024.31 1023.84 1023.21 1022.52 1021.95 1021.31 1020.81 1020.33 1020.00 1019.70 1019.44 1019.09 1018.87 1018.63 1018.39 1018.20 1017.92 1017.52 1017.26 1017.01 1016.73 1016.52 1016.41 1016.18 1015.74 1015.42 1014.94 1014.38 1014.04 1013.63 1013.09 1012.47 1011.74 1011.38 1011.41 1011.48 1011.21 1011.30 1011.34 1011.39 1011.85 1012.35
1025.23 1024.66 1023.97 1023.19 1022.55 1022.05 1021.73 1020.94 1020.25 1019.89 1019.58 1019.15 1018.76 1018.53 1018.26 1017.79 1017.62 1017.55 1017.37 1016.91 1016.69 1016.62 1016.29 1016.15 1016.04 1015.69 1015.17 1014.74 1014.26 1013.87 1013.56 1013.00 1012.47 1011.78 1011.19 1010.76 1010.48 1010.46 1010.66 1010.70 1010.80 1010.91 1011.40
1025.51 1024.81 1024.24 1023.55 1022.87 1022.20 1021.55 1020.73 1019.99 1019.25 1019.05 1018.66 1018.19 1017.91 1017.76 1017.25 1017.22 1017.26 1016.94 1016.57 1016.39 1016.34 1016.21 1015.85 1015.92 1015.54 1015.11 1014.62 1014.09 1013.63 1013.24 1012.80 1012.25 1011.67 1011.00 1010.43 1010.28 1009.96 1009.87 1010.20 1009.98 1010.07 1010.33
1025.55 1024.87 1024.02 1023.38 1022.66 1022.08 1021.47 1020.64 1019.72 1018.94 1018.19 1017.78 1017.59 1017.28 1017.06 1016.59 1016.35 1016.51 1016.34 1015.93 1015.73 1015.66 1015.52 1015.56 1015.21 1015.06 1014.50 1014.20 1013.87 1013.43 1013.02 1012.40 1011.86 1011.42 1010.78 1010.14 1009.63 1009.49 1009.42 1009.13 1009.19 1009.29 1009.48
1025.61 1024.84 1024.03 1023.34 1022.60 1021.94 1021.22 1020.32 1019.28 1018.59 1017.85 1017.37 1016.83 1016.64 1016.43 1015.89 1015.73 1015.67 1015.47 1015.30 1015.26 1015.24 1015.02 1014.91 1014.60 1014.43 1014.26 1013.85 1013.50 1013.15 1012.61 1011.92 1011.26 1010.64 1010.07 1009.52 1009.00 1008.67 1008.73 1008.67 1008.41 1008.43 1008.62
1025.54 1024.67 1023.98 1023.22 1022.34 1021.77 1021.20 1020.32 1019.43 1018.66 1017.82 1017.06 1016.45 1016.19 1015.94 1015.39 1015.19 1015.20 1015.13 1015.08 1014.87 1014.66 1014.30 1014.39 1014.28 1014.02 1013.56 1013.53 1013.10 1012.35 1011.84 1011.38 1010.37 1009.56 1008.95 1008.56 1008.24 1007.96 1007.80 1007.80 1007.70 1007.56 1007.34
1025.32 1024.46 1023.68 1022.88 1022.05 1021.37 1020.77 1020.06 1019.71 1018.82 1017.82 1017.08 1016.22 1015.71 1015.28 1014.84 1014.61 1014.69 1014.49 1014.31 1014.20 1014.08 1013.82 1013.76 1013.70 1013.50 1013.37 1013.26 1012.68 1012.40 1011.13 1010.30 1009.50 1008.60 1008.07 1007.52 1007.21 1007.34 1007.22 1007.00 1006.97 1006.69 1006.68
1024.80 1023.98 1023.25 1022.41 1021.55 1020.83 1020.26 1019.50 1018.72 1018.06 1017.33 1016.64 1015.91 1015.41 1014.68 1014.21 1013.80 1013.51 1013.33 1013.02 1012.68 1012.78 1012.72 1012.60 1012.64 1012.64 1012.36 1012.36 1012.41 1012.28 1011.51 1010.26 1009.80 1008.67 1007.75 1007.34 1006.89 1006.53 1006.47 1006.43 1006.22 1005.98 1005.94
1024.37 1023.53 1022.69 1021.80 1021.01 1020.18 1019.47 1018.95 1018.27 1017.64 1016.72 1015.82 1015.34 1014.75 1014.28 1013.79 1013.13 1012.74 1012.46 1012.33 1012.18 1012.08 1011.97 1011.84 1011.81 1011.95 1011.97 1011.52 1011.73 1011.69 1011.61 1011.33 1010.53 1008.85 1007.64 1007.58 1007.36 1006.83 1006.17 1005.69 1005.52 1005.39 1005.30
1023.87 1022.91 1022.08 1021.17 1020.30 1019.41 1018.72 1018.23 1017.51 1016.63 1015.86 1015.06 1014.42 1013.89 1013.19 1012.62 1012.27 1011.96 1011.69 1011.47 1011.34 1011.28 1011.22 1011.36 1011.30 1011.34 1011.28 1011.10 1010.87 1010.91 1011.12 1010.91 1010.90 1010.22 1008.74 1007.34 1006.94 1006.64 1006.23 1005.97 1004.90 1004.66 1004.68
1023.21 1022.19 1021.15 1020.13 1019.10 1018.53 1017.88 1017.14 1016.56 1015.85 1014.97 1014.26 1013.46 1012.91 1012.34 1011.80 1011.35 1011.15 1010.89 1010.57 1010.36 1010.31 1010.36 1010.39 1010.31 1010.38 1010.39 1010.27 1010.15 1010.28 1010.40 1010.40 1010.10 1009.64 1008.96 1007.68 1007.11 1006.47 1006.46 1006.07 1005.43 1004.27 1004.24
Thickness
5742 5741 5738 5736 5734 5733 5731 5730 5730 5729 5728 5728 5726 5725 5726 5725 5725 5725 5725 5725 5725 5726 5728 5727 5727 5727 5727 5727 5726 5728 5729 5731 5731 5732 5733 5733 5735 5736 5737 5738 5739 5742 5741
5740 5737 5733 5731 5730 5728 5726 5725 5725 5723 5724 5723 5722 5721 5722 5721 5719 5719 5721 5720 5720 5721 5721 5723 5724 5723 5723 5724 5723 5725 5726 5726 5727 5728 5728 5730 5731 5732 5732 5735 5736 5737 5736
5733 5731 5728 5725 5724 5724 5722 5720 5721 5718 5720 5718 5717 5718 5717 5717 5715 5715 5715 5715 5715 5716 5717 5718 5719 5718 5718 5719 5720 5721 5722 5723 5722 5723 5723 5726 5727 5726 5729 5730 5731 5732 5732
5724 5722 5721 5719 5718 5717 5715 5714 5714 5713 5713 5712 5712 5711 5712 5712 5712 5712 5712 5711 5711 5712 5713 5714 5714 5715 5714 5715 5717 5718 5718 5718 5719 5719 5720 5721 5721 5723 5725 5725 5727 5727 5727
5710 5710 5711 5710 5708 5706 5707 5707 5706 5706 5704 5704 5705 5707 5705 5706 5707 5708 5707 5706 5708 5708 5709 5710 5710 5712 5712 5711 5712 5713 5715 5714 5714 5715 5717 5716 5718 5720 5720 5721 5721 5721 5722
5696 5698 5699 5699 5698 5697 5697 5696 5696 5695 5695 5694 5696 5696 5698 5700 5701 5701 5703 5702 5702 5703 5703 5704 5706 5707 5708 5708 5708 5708 5710 5710 5710 5712 5711 5711 5714 5715 5714 5715 5715 5715 5716
5683 5683 5684 5686 5684 5685 5685 5686 5684 5684 5685 5685 5685 5688 5690 5692 5694 5697 5697 5696 5696 5695 5698 5698 5700 5700 5702 5703 5704 5705 5704 5705 5707 5706 5707 5708 5708 5708 5710 5712 5709 5710 5710
5674 5673 5673 5673 5671 5672 5673 5675 5673 5672 5676 5676 5675 5677 5680 5682 5684 5684 5685 5686 5687 5687 5690 5691 5693 5693 5696 5697 5700 5701 5699 5700 5702 5703 5703 5703 5702 5704 5705 5704 5703 5706 5704
5664 5664 5664 5663 5660 5658 5662 5659 5661 5658 5661 5662 5664 5665 5666 5669 5671 5671 5672 5675 5676 5676 5679 5682 5685 5686 5689 5691 5694 5695 5696 5696 5696 5698 5699 5698 5697 5698 5700 5701 5699 5700 5699
5653 5651 5651 5650 5646 5649 5649 5645 5645 5648 5646 5648 5650 5652 5654 5657 5659 5658 5660 5662 5664 5666 5667 5669 5673 5677 5681 5684 5687 5689 5690 5690 5691 5691 5693 5694 5693 5694 5696 5695 5696 5695 5694
5643 5639 5637 5636 5635 5635 5635 5632 5633 5635 5635 5636 5638 5638 5639 5640 5643 5645 5648 5650 5652 5655 5656 5659 5662 5666 5671 5675 5680 5684 5684 5680 5682 5684 5684 5685 5687 5690 5691 5691 5691 5691 5691
5624 5623 5620 5620 5620 5619 5620 5619 5619 5619 5620 5621 5622 5623 5623 5624 5626 5628 5632 5636 5639 5641 5643 5646 5650 5654 5659 5664 5668 5674 5678 5678 5676 5677 5681 5683 5685 5687 5687 5688 5688 5688 5689
5609 5608 5606 5604 5603 5601 5602 5603 5603 5604 5605 5605 5606 5606 5607 5610 5612 5614 5617 5619 5623 5626 5629 5633 5637 5640 5645 5650 5655 5661 5667 5671 5673 5676 5680 5683 5683 5681 5682 5685 5685 5685 5685
5599 5595 5592 5590 5589 5588 5587 5586 5586 5587 5589 5590 5590 5591 5592 5592 5593 5596 5601 5603 5606 5608 5611 5614 5619 5625 5629 5635 5642 5648 5653 5660 5667 5673 5679 5674 5673 5678 5681 5681 5681 5680 5682
5577 5574 5574 5572 5572 5570 5568 5569 5570 5568 5568 5570 5571 5572 5574 5573 5573 5576 5579 5584 5588 5592 5596 5599 5604 5609 5615 5621 5626 5632 5640 5648 5657 5666 5670 5669 5668 5670 5679 5680 5679 5677 5677
5556 5554 5551 5550 5550 5550 5550 5551 5551 5551 5551 5549 5549 5549 5551 5552 5553 5555 5559 5563 5567 5573 5578 5583 5587 5593 5598 5605 5613 5619 5625 5632 5641 5652 5661 5664 5666 5671 5674 5676 5679 5677 5673
5533 5530 5528 5529 5528 5526 5524 5525 5526 5527 5527 5528 5529 5529 5528 5530 5532 5534 5538 5544 5547 5551 5557 5562 5567 5575 5583 5589 5597 5604 5611 5619 5627 5636 5647 5657 5663 5669 5670 5662 5674 5676 5674
5505 5505 5503 5502 5501 5501 5500 5500 5500 5503 5501 5500 5503 5504 5504 5508 5508 5508 5513 5520 5525 5530 5535 5542 5545 5554 5562 5571 5581 5589 5596 5604 5614 5623 5633 5644 5652 5659 5665 5665 5671 5674 5673
5480 5477 5478 5475 5473 5471 5472 5471 5472 5475 5479 5479 5479 5478 5478 5484 5488 5487 5491 5497 5500 5507 5513 5517 5526 5532 5544 5551 5560 5571 5579 5590 5600 5609 5622 5631 5641 5649 5656 5664 5667 5669 5671
5454 5451 5447 5444 5442 5438 5436 5437 5444 5448 5452 5453 5455 5453 5454 5458 5461 5463 5470 5475 5476 5481 5488 5492 5501 5510 5519 5529 5539 5550 5562 5575 5586 5598 5610 5620 5631 5640 5646 5653 5661 5665 5668
5429 5425 5419 5416 5415 5410 5409 5408 5410 5411 5418 5425 5428 5428 5428 5432 5436 5437 5441 5444 5447 5453 5462 5467 5472 5482 5496 5502 5513 5530 5545 5557 5572 5587 5600 5610 5620 5631 5639 5646 5653 5661 5667
5405 5400 5395 5392 5391 5387 5383 5383 5378 5381 5390 5394 5402 5403 5404 5407 5410 5410 5415 5420 5423 5427 5435 5441 5445 5455 5464 5473 5486 5498 5523 5540 5555 5574 5585 5599 5609 5615 5626 5637 5644 5654 5660
5393 5388 5383 5381 5379 5376 5370 5370 5370 5370 5372 5377 5381 5383 5388 5389 5394 5397 5400 5404 5410 5411 5419 5423 5425 5430 5442 5451 5456 5467 5487 5511 5521 5546 5563 5576 5589 5600 5612 5624 5636 5645 5652
5387 5383 5380 5377 5374 5371 5368 5364 5362 5360 5363 5369 5369 5374 5378 5380 5385 5387 5390 5391 5396 5398 5400 5404 5407 5408 5410 5426 5430 5440 5450 5467 5484 5519 5538 5549 5559 5576 5593 5609 5622 5634 5641
5380 5377 5373 5372 5370 5370 5367 5362 5359 5360 5361 5364 5369 5370 5376 5379 5380 5382 5383 5385 5388 5389 5391 5391 5392 5391 5392 5399 5410 5414 5420 5435 5450 5469 5500 5523 5535 5552 5569 5585 5607 5620 5628
5377 5374 5372 5372 5373 5367 5362 5361 5358 5356 5359 5360 5365 5366 5369 5373 5376 5376 5377 5380 5383 5384 5384 5384 5385 5384 5385 5389 5395 5397 5400 5407 5424 5441 5465 5493 5505 5530 5543 5559 5578 5602 5613